Location: Northcutt
(34.7304°N, 84.4305°W)
Time: 16:42:13
(UTC+00:00)

Courier 1B Rocket - Visible Passes

Search period start: 26 September 2022 00:00
Search period end: 06 October 2022 00:00
Orbit: 920 x 1202 km, 28.2° (Epoch: 25 September)

Date Brightness Start Highest point End Pass type
(mag) Time Alt. Az. Time Alt. Az. Time Alt. Az.
26 Sep 6.9 01:18:59 10° S 01:20:11 12° S 01:20:11 12° S visible
26 Sep 7.2 08:57:51 12° SSE 08:57:51 12° SSE 08:58:28 10° SSE visible
27 Sep 7.1 02:08:48 10° SW 02:09:39 13° SSW 02:09:39 13° SSW visible
28 Sep 6.3 01:08:34 10° SSW 01:12:41 20° SSE 01:12:41 20° SSE visible
29 Sep 6.7 00:08:47 10° S 00:12:19 15° SSE 00:15:39 10° ESE visible
29 Sep 6.5 01:59:23 10° SW 02:02:01 22° SSW 02:02:01 22° SSW visible
30 Sep 5.9 00:58:47 10° SW 01:04:11 28° SSE 01:04:57 27° SSE visible
30 Sep 7.4 02:51:05 10° WSW 02:51:20 11° WSW 02:51:20 11° WSW visible
30 Sep 6.4 23:58:25 10° SSW 00:03:19 22° SSE 00:07:49 11° ESE visible
01 Oct 6.0 01:50:10 10° WSW 01:54:12 32° SSW 01:54:12 32° SSW visible
02 Oct 5.7 00:49:20 10° SW 00:55:16 35° SSE 00:57:01 30° SE visible
02 Oct 7.2 02:42:08 10° WSW 02:43:23 16° WSW 02:43:23 16° WSW visible
02 Oct 6.1 23:48:36 10° SW 23:54:21 29° SSE 23:59:47 10° ESE visible
03 Oct 5.6 01:41:06 10° WSW 01:46:10 42° SSW 01:46:10 42° SSW visible
04 Oct 5.6 00:40:05 10° WSW 00:46:22 42° S 00:48:55 29° ESE visible
04 Oct 6.9 02:33:15 10° WSW 02:35:17 20° WSW 02:35:17 20° WSW visible
04 Oct 5.9 23:39:08 10° SW 23:45:24 37° SSE 23:51:19 10° E visible
05 Oct 5.4 01:32:06 10° WSW 01:38:00 48° SSW 01:38:00 48° SSW visible
